Regional Weather Roundup
Issued by NWS

Home | Current Version | Previous Version | Graphics & Text | Print | Product List | Glossary On
Versions: 1 2 3 4 5 6 7 8 9 10 11 12 13 14 15 16 17 18 19 20 21 22 23 24 25 26 27 28 29 30 31 32 33 34 35 36 37 38 39 40 41 42 43 44 45 46 47 48 49 50
000
ASUS43 KLMK 261902
RWRKY
KENTUCKY REGIONAL WEATHER ROUNDUP
NATIONAL WEATHER SERVICE LOUISVILLE KY
300 PM EDT SUN MAR 26 2017

NOTE "FAIR" INDICATES FEW OR NO CLOUDS BELOW 12,000 FEET
WITH NO SIGNIFICANT WEATHER AND/OR OBSTRUCTIONS TO VISIBILITY.

KYZ001>023-026-027-061>063-070>075-262000-
WESTERN AND SOUTH CENTRAL KENTUCKY

CITY           SKY/WX    TMP DP  RH WIND       PRES   REMARKS
PADUCAH        CLOUDY    61  49  64 W14       29.94F
HENDERSON      PTSUNNY   64  55  72 SW20      29.90F
OWENSBORO      LGT RAIN  60  57  89 W14G21    29.92S
HOPKINSVILLE   PTSUNNY   70  55  58 SW16G28   29.93F
BOWLING GREEN  CLOUDY    67  56  67 SW12      29.95F
GLASGOW        NOT AVBL
$$

KYZ024-025-028>034-038-045-046-053-262000-
NORTH CENTRAL KENTUCKY

CITY           SKY/WX    TMP DP  RH WIND       PRES   REMARKS
LOUISVILLE/SDF PTSUNNY   68  51  54 SW14      29.91F
LOUISVILLE/LOU CLOUDY    68  53  58 S12       29.91F
FORT KNOX      PTSUNNY   67  54  63 S14G22    29.91F
$$

KYZ035>037-039>044-047>052-055>060-089>105-262000-
NORTHEAST KENTUCKY

CITY           SKY/WX    TMP DP  RH WIND       PRES   REMARKS
LEXINGTON      PTSUNNY   68  53  58 SW14      29.95F
COVINGTON      PTSUNNY   64  56  75 SW8       29.92F
FRANKFORT      MOSUNNY   68  52  56 SW16G22   29.92F
$$

KYZ054-064>069-076>088-106>120-262000-
SOUTHEAST KENTUCKY

CITY           SKY/WX    TMP DP  RH WIND       PRES   REMARKS
JACKSON        CLOUDY    64  55  72 VRB5      30.01R
LONDON         LGT RAIN  58  56  93 W9        30.01S
SOMERSET       NOT AVBL
MIDDLESBORO    LGT RAIN  63  59  86 S7        30.04R
MONTICELLO     CLOUDY    64  59  83 SW18      30.01F
$$




USA.gov is the U.S. government's official web portal to all federal, state and local government web resources and services.